Location: Tehachapi Municipal Airport
(35.1300°N, 118.4400°W)
Time: 23:00:43
(UTC-07:00)

BREEZE M DEB (TANK) - Visible Passes

Search period start: 29 August 2015 00:00
Search period end: 08 September 2015 00:00
Orbit: 290 x 12097 km, 49.5° (Epoch: 28 August)

Date Brightness Start Highest point End Pass type
(mag) Time Alt. Az. Time Alt. Az. Time Alt. Az.
29 Aug 3.9 03:53:04 33° NE 03:53:04 33° NE 03:56:27 10° NE visible
30 Aug 5.2 03:15:54 15° ENE 03:15:54 15° ENE 03:16:54 10° ENE visible
01 Sep 5.0 05:56:48 10° NW 06:01:04 28° N 06:12:28 10° ENE visible
02 Sep 4.7 05:18:09 10° NW 05:21:38 25° N 05:29:53 10° NE visible
03 Sep 4.2 04:40:44 20° NW 04:42:16 24° N 04:48:29 10° NE visible
04 Sep 4.2 04:03:25 26° N 04:03:25 26° N 04:07:57 10° NE visible
05 Sep 5.0 03:26:03 19° NNE 03:26:03 19° NNE 03:28:02 10° NE visible
